Aurora, NE

12:38 PM CDT on September 30, 2016 (GMT -0500)
Aurora Municipal

Weather History for KAUH - February, 2013

Change the Weather History Date:

Sunday, February 10, 2013

  Actual Average Record
Temperature  
Mean Temperature 37 °F -  
Max Temperature 42 °F 37 °F 73 °F (1999)
Min Temperature 32 °F 16 °F -6 °F (1982)
Degree Days  
Heating Degree Days 28    
Moisture  
Dew Point 33 °F    
Average Humidity 88    
Maximum Humidity 100    
Minimum Humidity 70    
Precipitation  
Precipitation 0.03 in - - ()
Sea Level Pressure  
Sea Level Pressure 29.48 in    
Wind  
Wind Speed 20 mph (West)    
Max Wind Speed 38 mph    
Max Gust Speed 51 mph    
Visibility 8 miles    
Events Rain    
Averages and records for this station are not official NWS values.
T = Trace of Precipitation, MM = Missing Value Source: NWS Daily Summary

Daily Weather History Graph

Daily Weather History Graph

Search for Another Location

Airport or City:

Trip Planner

Search our weather history database for the weather conditions in past years. The results will help you decide how hot, cold, wet, or windy it might be!

Date:

Astronomy

Feb. 10, 2013 Rise Set
Actual Time 7:32 AM CST 6:00 PM CST
Civil Twilight 7:03 AM CST 6:29 PM CST
Nautical Twilight 6:31 AM CST 7:01 PM CST
Astronomical Twilight 5:59 AM CST 7:33 PM CST
Moon 7:22 AM CST (2/10) 6:53 PM CST (2/10)
Length of Visible Light 11h 25m
Length of Day
10h 28m
New Moon, 0% of the Moon is Illuminated
Feb 10
New Moon
Feb 17
First Quarter
Feb 25
Full
Mar 4
Last Quarter
Mar 11
New

Hourly Weather History & Observations

Time (CST) Temp. Windchill Dew Point Humidity Pressure Visibility Wind Dir Wind Speed Gust Speed Precip Events Conditions
12:15 AM 39.2 °F 30.5 °F 39.2 °F 100% 29.53 in 4.0 mi SSE 16.1 mph 21.9 mph N/A   Overcast
12:35 AM 39.2 °F 30.2 °F 39.2 °F 100% 29.51 in 3.0 mi SSE 17.3 mph - N/A   Overcast
12:55 AM 39.2 °F 30.2 °F 39.2 °F 100% 29.52 in 4.0 mi SSE 17.3 mph 24.2 mph N/A   Overcast
1:15 AM 39.2 °F 29.8 °F 39.2 °F 100% 29.49 in 2.5 mi SE 18.4 mph 21.9 mph N/A   Overcast
1:35 AM 39.2 °F 30.5 °F 39.2 °F 100% 29.48 in 3.0 mi SSE 16.1 mph 24.2 mph N/A   Overcast
1:55 AM 38.8 °F 28.8 °F 38.8 °F 100% 29.44 in 2.5 mi SE 20.7 mph 25.3 mph N/A Rain Light Rain
2:15 AM 39.2 °F 29.8 °F 39.2 °F 100% 29.42 in 2.0 mi SE 18.4 mph 26.5 mph N/A   Overcast
2:35 AM 39.4 °F 32.7 °F 39.4 °F 100% 29.44 in 2.5 mi SSE 10.4 mph 23.0 mph N/A Rain Light Rain
2:55 AM 39.4 °F 31.1 °F 39.4 °F 100% 29.41 in 1.5 mi SE 15.0 mph - 0.02 in Rain Light Rain
3:15 AM 39.4 °F 31.1 °F 39.4 °F 100% 29.39 in 2.5 mi SE 15.0 mph - N/A Rain Light Rain
3:35 AM 39.6 °F 31.7 °F 39.6 °F 100% 29.37 in 3.0 mi SE 13.8 mph - 0.01 in   Overcast
3:55 AM 40.1 °F 32.7 °F 40.1 °F 100% 29.35 in 4.0 mi SE 12.7 mph - 0.01 in   Overcast
4:15 AM 40.1 °F 32.7 °F 40.1 °F 100% 29.33 in 4.0 mi SE 12.7 mph 20.7 mph N/A Rain Light Rain
4:35 AM 40.6 °F 33.0 °F 40.6 °F 100% 29.30 in 5.0 mi SE 13.8 mph - N/A   Overcast
4:55 AM 41.2 °F 33.7 °F 41.2 °F 100% 29.28 in 5.0 mi SE 13.8 mph - N/A   Overcast
5:15 AM 41.5 °F 33.8 °F 41.5 °F 100% 29.25 in 7.0 mi SE 15.0 mph - N/A   Overcast
5:35 AM 41.9 °F 35.0 °F 41.9 °F 100% 29.25 in 7.0 mi SE 12.7 mph - N/A   Overcast
5:55 AM 41.9 °F 34.6 °F 41.9 °F 100% 29.24 in 7.0 mi SE 13.8 mph - N/A   Overcast
6:15 AM 42.1 °F 34.9 °F 42.1 °F 100% 29.22 in 10.0 mi SSE 13.8 mph 19.6 mph N/A   Overcast
6:35 AM 41.5 °F 34.2 °F 40.1 °F 95% 29.21 in 10.0 mi SSE 13.8 mph - N/A   Mostly Cloudy
7:15 AM 40.3 °F 31.6 °F 36.7 °F 87% 29.20 in 10.0 mi South 17.3 mph 24.2 mph N/A   Overcast
7:35 AM 39.4 °F 29.8 °F 36.7 °F 90% 29.21 in 10.0 mi South 19.6 mph 26.5 mph N/A   Overcast
7:55 AM 38.7 °F 28.8 °F 37.8 °F 97% 29.21 in 10.0 mi SSW 19.6 mph 27.6 mph N/A   Overcast
8:15 AM 37.0 °F 25.9 °F 36.5 °F 98% 29.22 in 10.0 mi SW 23.0 mph - N/A   Overcast
8:35 AM 35.6 °F 24.2 °F 34.7 °F 97% 29.22 in 10.0 mi SSW 21.9 mph 27.6 mph N/A   Overcast
8:55 AM 35.2 °F 25.8 °F 34.2 °F 96% 29.22 in 10.0 mi SSW 15.0 mph - N/A   Overcast
9:15 AM 35.6 °F 25.9 °F 34.7 °F 97% 29.21 in 10.0 mi SSW 16.1 mph 20.7 mph N/A   Overcast
9:35 AM 35.8 °F 27.3 °F 34.9 °F 97% 29.21 in 10.0 mi South 12.7 mph - N/A   Overcast
9:55 AM 36.5 °F 31.0 °F 36.0 °F 98% 29.21 in 10.0 mi SSW 6.9 mph - N/A   Overcast
10:15 AM 39.0 °F 33.4 °F 38.3 °F 97% 29.20 in 10.0 mi WSW 8.1 mph - N/A   Overcast
10:35 AM 39.6 °F 31.7 °F 38.5 °F 96% 29.22 in 10.0 mi WNW 13.8 mph - N/A   Overcast
10:55 AM 38.1 °F 26.4 °F 37.2 °F 97% 29.24 in 10.0 mi NW 27.6 mph 33.4 mph N/A   Overcast
11:15 AM 36.7 °F 24.0 °F 35.4 °F 95% 29.26 in 10.0 mi NW 29.9 mph 35.7 mph N/A   Overcast
11:35 AM 36.0 °F 22.8 °F 34.3 °F 94% 29.29 in 10.0 mi NW 31.1 mph 39.1 mph N/A   Overcast
11:55 AM 35.6 °F 21.5 °F 32.7 °F 89% 29.31 in 10.0 mi NW 35.7 mph 41.4 mph N/A   Overcast
12:15 PM 34.7 °F 22.0 °F 32.0 °F 90% 29.33 in 10.0 mi NW 26.5 mph 36.8 mph N/A   Overcast
12:35 PM 33.8 °F 20.8 °F 31.1 °F 90% 29.35 in 10.0 mi NW 26.5 mph 41.4 mph N/A   Overcast
12:55 PM 33.4 °F 20.1 °F 30.7 °F 90% 29.37 in 10.0 mi NW 27.6 mph 36.8 mph N/A   Overcast
1:15 PM 33.6 °F 19.8 °F 30.6 °F 89% 29.38 in 10.0 mi WNW 29.9 mph 38.0 mph N/A   Overcast
1:35 PM 33.4 °F 18.7 °F 29.8 °F 87% 29.40 in 10.0 mi NW 34.5 mph 40.3 mph N/A   Overcast
1:55 PM 33.1 °F 18.4 °F 29.1 °F 85% 29.42 in 10.0 mi NW 33.4 mph 40.3 mph N/A   Overcast
2:15 PM 33.3 °F 18.7 °F 28.6 °F 83% 29.44 in 10.0 mi NW 33.4 mph 43.7 mph N/A   Overcast
2:35 PM 32.9 °F 18.4 °F 27.9 °F 82% 29.46 in 10.0 mi NW 32.2 mph 40.3 mph N/A   Overcast
2:55 PM 32.9 °F 18.6 °F 27.5 °F 81% 29.48 in 10.0 mi NW 31.1 mph 41.4 mph N/A   Overcast
3:15 PM 32.9 °F 18.6 °F 26.4 °F 77% 29.51 in 10.0 mi NW 31.1 mph 39.1 mph N/A   Overcast
3:35 PM 32.5 °F 17.3 °F 26.1 °F 77% 29.53 in 10.0 mi NW 35.7 mph 43.7 mph N/A   Overcast
3:55 PM 32.4 °F 17.5 °F 25.3 °F 75% 29.55 in 10.0 mi NW 33.4 mph 42.6 mph N/A   Overcast
4:15 PM 32.5 °F 18.8 °F 25.7 °F 76% 29.57 in 10.0 mi NW 27.6 mph 41.4 mph N/A   Overcast
4:35 PM 32.7 °F 19.3 °F 25.5 °F 75% 29.59 in 10.0 mi NW 26.5 mph 36.8 mph N/A   Overcast
4:55 PM 32.9 °F 19.1 °F 25.7 °F 75% 29.61 in 10.0 mi NW 28.8 mph 40.3 mph N/A   Overcast
5:15 PM 33.4 °F 19.1 °F 25.3 °F 72% 29.62 in 10.0 mi NW 32.2 mph 46.0 mph N/A   Overcast
5:35 PM 33.4 °F 20.1 °F 25.7 °F 73% 29.63 in 10.0 mi NW 27.6 mph 35.7 mph N/A   Overcast
5:55 PM 33.4 °F 19.6 °F 25.5 °F 73% 29.66 in 10.0 mi NW 29.9 mph 43.7 mph N/A   Overcast
6:15 PM 33.1 °F 18.7 °F 25.5 °F 74% 29.68 in 10.0 mi NW 32.2 mph 43.7 mph N/A   Overcast
6:35 PM 33.1 °F 18.7 °F 26.4 °F 77% 29.70 in 10.0 mi NW 32.2 mph 38.0 mph N/A   Mostly Cloudy
6:55 PM 33.1 °F 20.1 °F 26.6 °F 77% 29.70 in 10.0 mi NW 25.3 mph 36.8 mph N/A   Mostly Cloudy
7:15 PM 32.5 °F 20.5 °F 27.3 °F 81% 29.71 in 10.0 mi NW 20.7 mph 25.3 mph N/A   Mostly Cloudy
7:35 PM 32.4 °F 20.9 °F 28.2 °F 85% 29.72 in 10.0 mi WNW 18.4 mph - N/A   Mostly Cloudy
7:55 PM 34.5 °F 20.0 °F 27.5 °F 76% 29.74 in 10.0 mi NW 35.7 mph 42.6 mph N/A   Overcast
8:15 PM 34.5 °F 21.5 °F 26.8 °F 73% 29.75 in 10.0 mi NW 27.6 mph 47.2 mph N/A   Overcast
8:35 PM 34.3 °F 21.8 °F 28.4 °F 79% 29.77 in 10.0 mi NW 25.3 mph 32.2 mph N/A   Overcast
8:55 PM 34.7 °F 20.3 °F 25.9 °F 70% 29.79 in 10.0 mi NW 35.7 mph 50.6 mph N/A   Overcast
9:15 PM 34.2 °F 21.3 °F 27.5 °F 77% 29.79 in 10.0 mi WNW 26.5 mph 32.2 mph N/A   Overcast
9:35 PM 34.5 °F 21.5 °F 25.9 °F 71% 29.82 in 10.0 mi NW 27.6 mph 48.3 mph N/A   Overcast
9:55 PM 33.8 °F 19.6 °F 26.6 °F 75% 29.83 in 10.0 mi WNW 32.2 mph 40.3 mph N/A   Overcast
10:15 PM 33.8 °F 18.6 °F 25.5 °F 72% 29.85 in 10.0 mi NW 38.0 mph 44.9 mph N/A   Overcast
10:35 PM 33.8 °F 20.1 °F 25.3 °F 71% 29.86 in 10.0 mi NW 29.9 mph 42.6 mph N/A   Overcast
10:55 PM 33.3 °F 20.1 °F 24.8 °F 71% 29.87 in 10.0 mi NW 26.5 mph 41.4 mph N/A   Overcast
11:15 PM 33.1 °F 20.1 °F 25.2 °F 73% 29.88 in 10.0 mi NW 25.3 mph 36.8 mph N/A   Overcast
11:35 PM 33.1 °F 20.6 °F 24.8 °F 72% 29.89 in 10.0 mi NW 23.0 mph 33.4 mph N/A   Overcast
11:55 PM 33.1 °F 20.6 °F 24.3 °F 70% 29.89 in 10.0 mi NW 23.0 mph 38.0 mph N/A   Overcast